Portada
METAR-TAF:

METAR-TAF

Aeroports :

Elkhart Municipal Airport

Elkhart, Indiana, Estats Units d'Amèrica

latitud: 41-43N, longitud: 086-00W, altitud: 237 m

Observació

L'informe es va fer fa 2 hores i 51 minuts, a les 22:48 UTC
Vent 13 kt del Nord/Nord-Est amb ràfegues de 18 kt
Temperatura -7°C
Humitat 73%
Pressió 1013 hPa
Visibilitat: 16.1 km
Cel ennuvolat a una alçada de 1800 ft

METAR: KEKM 192248Z 02013G18KT 10SM BKN018 M07/M11 A2992 RMK LAST

Hora: 20:39 (01:39 UTC)


TAF: manca

Observacions i pronòstics meteorològics de més de 4000 aeroports (METAR i TAF).

Les estacions disponibles són els punts grocs i vermells al mapa.

Posi el ratolí al punt desitjat per veure el nom de l'estació.

Feu clic per veure les observacions i els pronòstics meteorològics.

Per canviar el mapa: feu clic els botons verds amb una creu de color negre per apropar; al botó verd amb un guió per allunyar la imatge; o en les fletxes verdes per a mapes adjacents.


METAR-TAF: